This demonstration page uses our WeatherBlox Daily Observations layout. Learn more.

40.92945, -100.16068

Hourly Observations for August 27, 2018

Temp ( °F °C ) Dew Point ( °F °C ) Humidity (%) Winds ( mph kmh ) Pressure ( in mb ) Visibility ( mi km ) Precip ( " mm )
12:15 am 00:15 Clear 69 20.7 59 15.1 70 70 S 9 15 29.59 1002 10 16.0934 0 0
12:35 am 00:35 Clear 68 20.1 59 15.2 74 74 S 7 11 29.62 1003 10 16.0934 0 0
12:55 am 00:55 Clear 68 20 59 15.2 74 74 S 8 13 29.62 1003 10 16.0934 0 0
1:15 am 01:15 Clear 70 21.1 59 15.2 69 69 S 6 9 29.59 1002 10 16.0934 0 0
1:35 am 01:35 Clear 71 21.5 59 15.1 67 67 Calm 29.59 1002 10 16.0934 0 0
1:55 am 01:55 Clear 70 21.2 60 15.5 70 70 Calm 29.59 1002 10 16.0934 0 0
2:15 am 02:15 Clear 66 19 61 16.3 84 84 NNE 3 6 29.62 1003 10 16.0934 0 0
2:35 am 02:35 Clear 65 18.6 61 16 85 85 ESE 3 6 29.62 1003 10 16.0934 0 0
2:55 am 02:55 Clear 66 19 61 16.1 83 83 Calm 29.62 1003 10 16.0934 0 0
3:15 am 03:15 Clear 67 19.3 62 16.4 83 83 N 5 7 29.62 1003 10 16.0934 0 0
3:35 am 03:35 Clear 69 20.4 61 16.1 76 76 NW 7 11 29.65 1004 10 16.0934 0 0
3:55 am 03:55 Clear 68 20.2 61 16.3 78 78 ENE 6 9 29.62 1003 10 16.0934 0 0
4:15 am 04:15 Clear 68 19.9 62 16.5 81 81 Calm 29.62 1003 10 16.0934 0 0
4:35 am 04:35 Clear 67 19.5 62 16.9 85 85 Calm 29.62 1003 10 16.0934 0 0
4:55 am 04:55 Clear 67 19.7 62 16.5 82 82 E 7 11 29.62 1003 10 16.0934 0 0
5:15 am 05:15 Clear 67 19.4 61 16.3 82 82 SE 6 9 29.62 1003 10 16.0934 0 0
5:35 am 05:35 Clear 68 20 62 16.6 81 81 ESE 6 9 29.62 1003 10 16.0934 0 0
5:55 am 05:55 Clear 67 19.5 63 17 86 86 E 5 7 29.62 1003 10 16.0934 0 0
6:15 am 06:15 Clear 67 19.3 63 17.1 87 87 E 8 13 29.62 1003 10 16.0934 0 0
6:35 am 06:35 Clear 66 19.1 63 17 88 88 ESE 7 11 29.62 1003 10 16.0934 0 0
6:55 am 06:55 Clear 69 20.3 64 17.7 85 85 ESE 7 11 29.59 1002 10 16.0934 0 0
7:15 am 07:15 Sunny 69 20.5 64 17.7 84 84 ESE 8 13 29.59 1002 10 16.0934 0 0
7:35 am 07:35 Sunny 70 21 64 17.7 82 82 ESE 8 13 29.59 1002 10 16.0934 0 0
7:55 am 07:55 Sunny 70 21.3 64 17.6 80 80 SE 8 13 29.59 1002 10 16.0934 0 0
8:15 am 08:15 Sunny 72 22 64 17.6 76 76 SE 7 11 29.59 1002 10 16.0934 0 0
8:35 am 08:35 Sunny 72 22 64 17.9 78 78 SE 5 7 29.59 1002 10 16.0934 0 0
8:55 am 08:55 Sunny 73 22.6 64 17.5 73 73 SE 7 11 29.56 1001 10 16.0934 0 0
9:15 am 09:15 Sunny 74 23.5 65 18.1 72 72 S 7 11 29.59 1002 10 16.0934 0 0
9:35 am 09:35 Sunny with Light Thunderstorms 73 22.6 65 18.2 76 76 Calm 29.56 1001 10 16.0934 0 0
9:55 am 09:55 Sunny with Thunderstorms 74 23.5 65 18.1 72 72 ESE 7 11 29.53 1000 10 16.0934 0 0
10:15 am 10:15 Sunny with Nearby Thunderstorms 74 23.5 65 18.3 73 73 Calm 29.59 1002 10 16.0934 0 0
10:35 am 10:35 Mostly Cloudy with Light Thunderstorms 72 22.3 66 19 82 82 WNW 6 9 29.59 1002 4 6.43736 0.03 0.762
10:55 am 10:55 Partly Cloudy with Light Rain 72 22.4 69 20.6 90 90 NE 5 7 29.59 1002 10 16.0934 0.04 1.016
11:15 am 11:15 Sunny 74 23.5 68 19.8 80 80 NNW 3 6 29.59 1002 10 16.0934 0 0
11:35 am 11:35 Sunny 75 24.1 68 19.9 77 77 Calm 29.56 1001 10 16.0934 0 0
11:55 am 11:55 Sunny 76 24.7 68 19.9 75 75 Calm 29.56 1001 10 16.0934 0 0
12:15 pm 12:15 Sunny 77 25.1 68 20.1 74 74 NNE 3 6 29.56 1001 10 16.0934 0 0
12:35 pm 12:35 Sunny 78 25.7 68 20.2 72 72 NE 3 6 29.56 1001 10 16.0934 0 0
12:55 pm 12:55 Sunny 79 26.1 69 20.3 70 70 Calm 29.56 1001 10 16.0934 0 0
1:15 pm 13:15 Sunny 80 26.5 68 20 68 68 Calm 29.56 1001 10 16.0934 0 0
1:35 pm 13:35 Sunny 81 27.2 68 20.2 66 66 N 3 6 29.56 1001 10 16.0934 0 0
1:55 pm 13:55 Sunny 82 28 69 20.3 63 63 ENE 3 6 29.53 1000 10 16.0934 0 0
2:15 pm 14:15 Sunny 82 28 68 20.2 63 63 NE 3 6 29.53 1000 10 16.0934 0 0
2:35 pm 14:35 Sunny 84 28.7 69 20.3 60 60 Calm 29.53 1000 10 16.0934 0 0
2:55 pm 14:55 Sunny 84 29.1 69 20.5 60 60 Calm 29.53 1000 10 16.0934 0 0
3:15 pm 15:15 Sunny 85 29.4 69 20.6 59 59 Calm 29.53 1000 10 16.0934 0 0
3:35 pm 15:35 Sunny 86 29.9 69 20.4 57 57 Calm 29.53 1000 10 16.0934 0 0
3:55 pm 15:55 Sunny 86 30.2 69 20.5 56 56 Calm 29.53 1000 10 16.0934 0 0
4:15 pm 16:15 Sunny 86 30.1 69 20.6 57 57 Calm 29.53 1000 10 16.0934 0 0
4:35 pm 16:35 Sunny 87 30.6 68 20 53 53 SSE 3 6 29.53 1000 10 16.0934 0 0
4:55 pm 16:55 Sunny 87 30.8 69 20.5 54 54 ENE 3 6 29.53 1000 10 16.0934 0 0
5:15 pm 17:15 Sunny 88 30.9 71 21.5 57 57 Calm 29.53 1000 10 16.0934 0 0
5:35 pm 17:35 Sunny 88 31.2 71 21.7 57 57 SE 6 9 29.5 999 10 16.0934 0 0
5:55 pm 17:55 Sunny 88 31.2 72 22 58 58 ESE 7 11 29.5 999 10 16.0934 0 0
6:15 pm 18:15 Sunny 87 30.5 72 22 60 60 E 8 13 29.53 1000 10 16.0934 0 0
6:35 pm 18:35 Sunny 87 30.5 71 21.7 59 59 E 7 11 29.53 1000 10 16.0934 0 0
6:55 pm 18:55 Sunny 86 30.1 71 21.8 61 61 E 6 9 29.53 1000 10 16.0934 0 0
7:15 pm 19:15 Sunny 86 29.8 71 21.8 62 62 E 7 11 29.5 999 10 16.0934 0 0
7:35 pm 19:35 Sunny 85 29.2 71 21.5 63 63 ESE 8 13 29.5 999 10 16.0934 0 0
7:55 pm 19:55 Sunny 83 28.4 71 21.8 67 67 ESE 7 11 29.53 1000 10 16.0934 0 0
8:15 pm 20:15 Sunny 81 27.1 72 22 74 74 E 7 11 29.56 1001 10 16.0934 0 0
8:35 pm 20:35 Clear 80 26.5 71 21.9 76 76 ESE 6 9 29.56 1001 10 16.0934 0 0
8:55 pm 20:55 Clear 79 26.2 71 21.5 75 75 ESE 7 11 29.56 1001 10 16.0934 0 0
9:15 pm 21:15 Clear 76 24.7 71 21.5 82 82 ESE 6 9 29.56 1001 10 16.0934 0 0
9:35 pm 21:35 Clear 78 25.3 70 21.3 79 79 SE 7 11 29.56 1001 10 16.0934 0 0
9:55 pm 21:55 Clear 76 24.7 70 21.1 80 80 SE 6 9 29.56 1001 10 16.0934 0 0
10:15 pm 22:15 Clear 76 24.5 70 21 81 81 ESE 6 9 29.56 1001 10 16.0934 0 0
10:35 pm 22:35 Clear 75 24 69 20.5 81 81 ESE 5 7 29.56 1001 10 16.0934 0 0
10:55 pm 22:55 Clear 73 22.8 68 20.1 85 85 E 5 7 29.59 1002 10 16.0934 0 0
11:15 pm 23:15 Clear 71 21.5 67 19.7 90 90 ENE 5 7 29.59 1002 10 16.0934 0 0
11:35 pm 23:35 Clear 71 21.6 68 20 91 91 E 5 7 29.59 1002 10 16.0934 0 0
11:55 pm 23:55 Clear 71 21.4 67 19.5 89 89 ENE 5 7 29.59 1002 10 16.0934 0 0

Powered by AerisWeather